Home > Weather > Hong Kong > Past weeks

Flag for Hong Kong Past Weather in Hong Kong, Hong Kong — Yesterday and Last 2 Weeks

Now
84 °F

Sprinkles. Passing clouds.


Feels Like: 96 °F
Forecast: 83 / 88 °F
Wind: 8 mph from East

Location: National Airport

Current Time: Jun 29, 2016 at 4:43:04 AM

Latest Report: Jun 29, 2016 at 4:00 AM


Visibility: N/A

Pressure: 29.77 "Hg

Humidity: 84%

Dew Point: 79 °F

Location of Hong KongLocation

Past Weather in Hong Kong — Graph

°F

Hong Kong Temperature Yesterday

Maximum temperature yesterday: 90 °F (at 5:00 PM)
Minimum temperature yesterday: 81 °F (at 6:00 AM)
Average temperature yesterday: 85 °F

High & Low Weather Summary for the Past Weeks

 TemperatureHumidityPressure
High97 °F (Jun 27, 1:00 PM)94% (Jun 28, 6:00 AM)29.86 "Hg (Jun 28, 6:00 AM)
Low81 °F (Jun 17, 3:00 AM)44% (Jun 24, 2:00 PM)29.59 "Hg (Jun 14, 4:30 PM)
Average88 °F72%29.76 "Hg
* Reported Jun 14 3:00 AM — Jun 29 3:00 AM, Hong Kong, Weather by CustomWeather, © 2016

Note: Actual official high and low records may vary slightly from our data, if they occured in-between our weather recording intervals... More about our weather records

Advertising

Hong Kong Weather History for the Previous 24 Hours

Scroll right to see more
 ConditionsComfort  
Time TempWeatherWind HumidityBarometerVisibility
3:00 AM
Wed, Jun 29
86 °FSprinkles. Passing clouds.12 mph75%29.80 "HgN/A
2:30 AM86 °FSprinkles. Passing clouds.7 mph75%29.80 "HgN/A
2:00 AM86 °FSprinkles. Passing clouds.8 mph84%29.80 "HgN/A
1:30 AM88 °FPassing clouds.10 mph70%29.80 "HgN/A
1:00 AM88 °FPassing clouds.13 mph70%29.80 "HgN/A
12:30 AM86 °FPassing clouds.10 mph79%29.80 "HgN/A
12:00 AM86 °FPassing clouds.9 mph79%29.83 "HgN/A
11:30 PM
Tue, Jun 28
86 °FPassing clouds.7 mph75%29.83 "HgN/A
11:00 PM86 °FPassing clouds.10 mph75%29.83 "HgN/A
10:30 PM86 °FPassing clouds.10 mph84%29.83 "HgN/A
10:00 PM88 °FSprinkles. Passing clouds.13 mph75%29.83 "HgN/A
9:30 PM86 °FPassing clouds.12 mph84%29.83 "HgN/A
9:00 PM86 °FPassing clouds.12 mph79%29.80 "HgN/A
8:30 PM86 °FPassing clouds.10 mph79%29.80 "HgN/A
8:00 PM88 °FPassing clouds.12 mph75%29.80 "HgN/A
7:30 PM88 °FPassing clouds.8 mph75%29.80 "HgN/A
7:00 PM88 °FScattered clouds.9 mph75%29.77 "HgN/A
6:30 PM88 °FScattered clouds.7 mph75%29.77 "HgN/A
6:00 PM88 °FScattered clouds.8 mph70%29.74 "HgN/A
5:30 PM88 °FScattered clouds.10 mph70%29.74 "HgN/A
5:00 PM90 °FScattered clouds.6 mph67%29.74 "HgN/A
4:30 PM88 °FScattered clouds.5 mph75%29.74 "HgN/A
4:00 PM88 °FScattered clouds.5 mph75%29.74 "HgN/A
3:30 PM86 °FScattered clouds.6 mph79%29.74 "HgN/A
3:00 PM86 °FScattered clouds.7 mph75%29.77 "HgN/A
2:30 PM86 °FScattered clouds.8 mph75%29.77 "HgN/A
2:00 PM86 °FScattered clouds.9 mph79%29.77 "HgN/A
1:30 PM86 °FScattered clouds.10 mph79%29.77 "HgN/A
1:00 PM86 °FScattered clouds.12 mph79%29.77 "HgN/A
12:30 PM88 °FScattered clouds.12 mph70%29.77 "HgN/A
12:00 PM86 °FScattered clouds.10 mph75%29.77 "HgN/A
11:30 AM84 °FScattered clouds.12 mph84%29.77 "HgN/A
11:00 AM84 °FScattered clouds.14 mph79%29.77 "HgN/A
10:30 AM84 °FScattered clouds.14 mph84%29.77 "HgN/A
10:00 AM82 °FSprinkles. Scattered clouds.14 mph89%29.77 "HgN/A
9:30 AM81 °FRain showers. Broken clouds.12 mph94%29.74 "Hg5 mi
9:00 AM81 °FThundershowers. Broken clouds.14 mph94%29.74 "HgN/A
8:30 AM81 °FThundershowers. Broken clouds.9 mph94%29.74 "Hg3 mi
8:00 AM81 °FSprinkles. Broken clouds.7 mph94%29.71 "Hg5 mi
7:30 AM81 °FRain showers. Broken clouds.7 mph94%29.71 "Hg4 mi
7:00 AM81 °FThundershowers. Broken clouds.12 mph89%29.71 "Hg2 mi
6:53 AM81 °FRain showers. Broken clouds.12 mph94%29.68 "Hg4 mi
6:30 AM81 °FRain showers. Broken clouds.13 mph94%29.68 "Hg4 mi
6:00 AM81 °FThundershowers. Scattered clouds.12 mph94%29.68 "Hg3 mi
5:30 AM82 °FRain showers. Passing clouds.9 mph89%29.68 "HgN/A
5:00 AM82 °FSprinkles. Passing clouds.9 mph89%29.65 "Hg4 mi
4:30 AM88 °FSprinkles. Passing clouds.12 mph66%29.65 "HgN/A
4:00 AM88 °FPassing clouds.8 mph66%29.68 "HgN/A
Weather by CustomWeather, © 2016

See weather overviewHow to use our weather pages